Weather History for KTPF - May, 2013

Change the Weather History Date:

Saturday, May 18, 2013

  Actual Average (KTPA) Record (KTPA)
Temperature  
Mean Temperature 78 °F 79 °F  
Max Temperature 87 °F 88 °F 93 °F (1991)
Min Temperature 69 °F 70 °F 58 °F (1967)
Degree Days  
Heating Degree Days 0 0  
Month to date heating degree days 0  
Since 1 July heating degree days 538  
Cooling Degree Days 13 14  
Month to date cooling degree days 220  
Year to date cooling degree days 680  
Growing Degree Days 28 (Base 50)    
Moisture  
Dew Point 65 °F    
Average Humidity 67    
Maximum Humidity 88    
Minimum Humidity 37    
Precipitation  
Precipitation 0.00 in 0.06 in 1.26 in (2009)
Month to date precipitation 0.96  
Year to date precipitation 11.06  
Sea Level Pressure  
Sea Level Pressure 30.08 in    
Wind  
Wind Speed 6 mph (South)    
Max Wind Speed 9 mph    
Max Gust Speed -    
Visibility 10 miles    
Events      
T = Trace of Precipitation, MM = Missing Value Source: NWS Daily Summary

Daily Weather History Graph

Daily Weather History Graph

Search for Another Location

Airport or City:

Trip Planner

Search our weather history database for the weather conditions in past years. The results will help you decide how hot, cold, wet, or windy it might be!

Date:

Astronomy

May. 18, 2013 Rise Set
Actual Time 6:38 AM EDT 8:14 PM EDT
Civil Twilight 6:12 AM EDT 8:39 PM EDT
Nautical Twilight 5:42 AM EDT 9:10 PM EDT
Astronomical Twilight 5:09 AM EDT 9:43 PM EDT
Moon 1:50 PM EDT (5/18) 1:54 AM EDT (5/18)
Length of Visible Light 14h 27m
Length of Day
13h 35m
First Quarter, 55% of the Moon is Illuminated
May 18
First Quarter
May 25
Full
May 31
Last Quarter
Jun 8
New
Jun 16
First Quarter

Hourly Weather History & Observations

Time (EDT) Temp. Heat Index Dew Point Humidity Pressure Visibility Wind Dir Wind Speed Gust Speed Precip Events Conditions
12:35 AM 75.2 °F - 64.4 °F 69% 30.10 in 10.0 mi ESE 9.2 mph - N/A   Clear
12:55 AM 73.4 °F - 64.4 °F 73% 30.10 in 10.0 mi ESE 8.1 mph - N/A   Clear
1:15 AM 73.4 °F - 64.4 °F 73% 30.10 in 10.0 mi ESE 8.1 mph - N/A   Clear
1:35 AM 73.4 °F - 64.4 °F 73% 30.09 in 10.0 mi East 5.8 mph - N/A   Clear
1:55 AM 73.4 °F - 64.4 °F 73% 30.09 in 10.0 mi East 5.8 mph - N/A   Clear
2:15 AM 71.6 °F - 64.4 °F 78% 30.09 in 10.0 mi ESE 5.8 mph - N/A   Clear
2:35 AM 71.6 °F - 64.4 °F 78% 30.08 in 10.0 mi ESE 5.8 mph - N/A   Clear
2:55 AM 71.6 °F - 64.4 °F 78% 30.08 in 7.0 mi ESE 6.9 mph - N/A   Clear
3:15 AM 71.6 °F - 64.4 °F 78% 30.08 in 10.0 mi ESE 5.8 mph - N/A   Clear
3:35 AM 71.6 °F - 64.4 °F 78% 30.07 in 10.0 mi East 4.6 mph - N/A   Clear
3:55 AM 71.6 °F - 64.4 °F 78% 30.07 in 10.0 mi East 4.6 mph - N/A   Clear
4:15 AM 69.8 °F - 64.4 °F 83% 30.07 in 10.0 mi East 4.6 mph - N/A   Clear
4:35 AM 69.8 °F - 64.4 °F 83% 30.07 in 10.0 mi East 3.5 mph - N/A   Clear
4:55 AM 69.8 °F - 64.4 °F 83% 30.07 in 10.0 mi East 4.6 mph - N/A   Clear
5:15 AM 69.8 °F - 64.4 °F 83% 30.07 in 10.0 mi East 4.6 mph - N/A   Clear
5:35 AM 69.8 °F - 64.4 °F 83% 30.08 in 10.0 mi East 3.5 mph - N/A   Clear
5:55 AM 69.8 °F - 64.4 °F 83% 30.08 in 10.0 mi East 3.5 mph - N/A   Clear
6:15 AM 69.8 °F - 64.4 °F 83% 30.08 in 10.0 mi East 3.5 mph - N/A   Clear
6:35 AM 69.8 °F - 66.2 °F 88% 30.09 in 10.0 mi East 3.5 mph - N/A   Clear
6:55 AM 69.8 °F - 66.2 °F 88% 30.09 in 10.0 mi East 3.5 mph - N/A   Clear
7:15 AM 71.6 °F - 68.0 °F 88% 30.10 in 10.0 mi ESE 3.5 mph - N/A   Clear
7:35 AM 71.6 °F - 68.0 °F 88% 30.10 in 10.0 mi SE 4.6 mph - N/A   Clear
7:55 AM 71.6 °F - 68.0 °F 88% 30.11 in 10.0 mi ESE 4.6 mph - N/A   Clear
8:15 AM 73.4 °F - 68.0 °F 83% 30.11 in 10.0 mi SE 4.6 mph - N/A   Clear
8:35 AM 73.4 °F - 68.0 °F 83% 30.11 in 10.0 mi SSE 3.5 mph - N/A   Clear
8:55 AM 73.4 °F - 68.0 °F 83% 30.12 in 10.0 mi SSE 4.6 mph - N/A   Clear
9:15 AM 75.2 °F - 69.8 °F 83% 30.12 in 10.0 mi SE 3.5 mph - N/A   Clear
9:35 AM 75.2 °F - 69.8 °F 83% 30.13 in 10.0 mi Calm Calm - N/A   Clear
9:55 AM 77.0 °F - 69.8 °F 78% 30.13 in 10.0 mi Calm Calm - N/A   Clear
10:15 AM 78.8 °F - 69.8 °F 74% 30.13 in 10.0 mi South 3.5 mph - N/A   Clear
10:35 AM 78.8 °F - 69.8 °F 74% 30.13 in 10.0 mi SSW 4.6 mph - N/A   Clear
10:55 AM 78.8 °F - 69.8 °F 74% 30.12 in 10.0 mi SSW 4.6 mph - N/A   Clear
11:15 AM 80.6 °F 83.2 °F 68.0 °F 65% 30.12 in 10.0 mi SSW 4.6 mph - N/A   Clear
11:55 AM 82.4 °F 85.4 °F 68.0 °F 62% 30.11 in 10.0 mi SSW 4.6 mph - N/A   Clear
12:15 PM 82.4 °F 85.4 °F 68.0 °F 62% 30.11 in 10.0 mi SSW 5.8 mph - N/A   Clear
12:35 PM 84.2 °F 87.3 °F 68.0 °F 58% 30.11 in 10.0 mi SW 6.9 mph - N/A   Clear
12:55 PM 86.0 °F 88.2 °F 66.2 °F 51% 30.10 in 10.0 mi SSW 6.9 mph - N/A   Clear
1:15 PM 86.0 °F 87.3 °F 64.4 °F 48% 30.09 in 10.0 mi SSW 6.9 mph - N/A   Clear
1:35 PM 86.0 °F 86.6 °F 62.6 °F 45% 30.09 in 10.0 mi SSW 8.1 mph - N/A   Clear
1:55 PM 86.0 °F 86.6 °F 62.6 °F 45% 30.09 in 10.0 mi SW 5.8 mph - N/A   Clear
2:15 PM 86.0 °F 86.1 °F 60.8 °F 43% 30.08 in 10.0 mi SSW 5.8 mph - N/A   Clear
2:35 PM 87.8 °F 87.1 °F 59.0 °F 38% 30.07 in 10.0 mi West 3.5 mph - N/A   Clear
3:15 PM 87.8 °F 87.6 °F 60.8 °F 40% 30.06 in 10.0 mi WSW 8.1 mph - N/A   Clear
3:35 PM 87.8 °F 88.5 °F 62.6 °F 43% 30.06 in 10.0 mi West 6.9 mph - N/A   Clear
3:55 PM 86.0 °F 87.3 °F 64.4 °F 48% 30.06 in 10.0 mi West 6.9 mph - N/A   Clear
4:15 PM 86.0 °F 87.3 °F 64.4 °F 48% 30.05 in 10.0 mi West 6.9 mph - N/A   Clear
4:55 PM 86.0 °F 86.1 °F 60.8 °F 43% 30.03 in 10.0 mi WNW 6.9 mph - N/A   Clear
5:15 PM 86.0 °F 85.4 °F 59.0 °F 40% 30.03 in 10.0 mi WNW 6.9 mph - N/A   Clear
5:35 PM 86.0 °F 84.9 °F 57.2 °F 37% 30.03 in 10.0 mi NW 6.9 mph - N/A   Clear
5:55 PM 84.2 °F 83.0 °F 55.4 °F 37% 30.03 in 10.0 mi WNW 5.8 mph - N/A   Clear
6:15 PM 84.2 °F 83.8 °F 59.0 °F 42% 30.03 in 10.0 mi WNW 5.8 mph - N/A   Clear
6:35 PM 82.4 °F 83.4 °F 62.6 °F 51% 30.03 in 10.0 mi West 8.1 mph - N/A   Clear
6:55 PM 82.4 °F 83.4 °F 62.6 °F 51% 30.03 in 10.0 mi WNW 6.9 mph - N/A   Clear
7:15 PM 80.6 °F 81.8 °F 62.6 °F 54% 30.04 in 10.0 mi West 4.6 mph - N/A   Clear
7:35 PM 80.6 °F 81.5 °F 60.8 °F 51% 30.04 in 10.0 mi WNW 5.8 mph - N/A   Clear
7:55 PM 80.6 °F 81.8 °F 62.6 °F 54% 30.04 in 10.0 mi WNW 4.6 mph - N/A   Clear
8:15 PM 78.8 °F - 62.6 °F 57% 30.04 in 10.0 mi WNW 3.5 mph - N/A   Clear
8:35 PM 78.8 °F - 64.4 °F 61% 30.04 in 10.0 mi WNW 4.6 mph - N/A   Clear
8:55 PM 78.8 °F - 64.4 °F 61% 30.05 in 10.0 mi WNW 4.6 mph - N/A   Clear
9:15 PM 77.0 °F - 64.4 °F 65% 30.05 in 10.0 mi NW 4.6 mph - N/A   Clear
9:35 PM 77.0 °F - 66.2 °F 69% 30.05 in 10.0 mi WNW 4.6 mph - N/A   Clear
9:55 PM 77.0 °F - 68.0 °F 74% 30.06 in 10.0 mi WNW 4.6 mph - N/A   Clear
10:15 PM 77.0 °F - 64.4 °F 65% 30.07 in 10.0 mi North 3.5 mph - N/A   Clear
10:35 PM 77.0 °F - 66.2 °F 69% 30.08 in 10.0 mi North 3.5 mph - N/A   Scattered Clouds
10:55 PM 77.0 °F - 66.2 °F 69% 30.09 in 10.0 mi NNE 5.8 mph - N/A   Mostly Cloudy
11:15 PM 75.2 °F - 68.0 °F 78% 30.09 in 10.0 mi NNE 6.9 mph - N/A   Scattered Clouds
11:35 PM 75.2 °F - 68.0 °F 78% 30.09 in 10.0 mi NNE 8.1 mph - N/A   Clear